Location: Honolulu
(21.2943°N, 157.8344°W)
Time: 05:06:37
(UTC-10:00)

ISS - Visible Passes

Search period start: 14 December 2017 00:00
Search period end: 24 December 2017 00:00
Orbit: 403 x 406 km, 51.6° (Epoch: 15 December)

Date Brightness Start Highest point End Pass type
(mag) Time Alt. Az. Time Alt. Az. Time Alt. Az.
15 Dec -1.6 19:24:37 10° NNW 19:25:30 17° NNW 19:25:30 17° NNW visible
16 Dec -2.5 18:32:55 10° N 18:35:32 22° NE 18:37:22 14° E visible
16 Dec -0.4 20:09:49 10° W 20:10:11 11° W 20:10:11 11° W visible
17 Dec -2.3 19:16:38 10° WNW 19:19:41 37° SW 19:22:43 10° SSE visible
18 Dec -3.9 18:24:13 10° NW 18:27:29 76° NE 18:30:44 10° SE visible
19 Dec -0.2 19:10:21 10° WSW 19:11:23 11° WSW 19:12:27 10° SW visible
20 Dec -1.2 18:16:26 10° WNW 18:19:15 27° SW 18:22:03 10° S visible
